1st Responders/1st Detectors/Storm Spotters Weather Summary for Jackson County, KY

Forecast Maps


Reg. NEXRAD Animation


National Fire Danger: Day 1 & 2 Map

Current NWS Watch/Warnings

SPC Convective Day 1 Outlook


Day 2 Outlook

(Click images to enlarge|Page will refresh every 5 minutes)
UK Ag. Weather Center Desktop Severe Weather Service[HERE]
Jackson County, KY Hazardous Weather Outlook Webcast
(9 AM to 9 PM Mon-Fri)
[Fast]
[Dial-up]


UKAWC 1st Detectors/1st Responders Precision Weather Forecast For JACKSON County, Kentucky
(based on the NWS County Digital Forecast)

ISSUED AT 09:00 UTC ON THURSDAY MAY 23 2019
DAY THURSDAY
EDT 3HR 6A 7A 8A 9A 10A 11A NOON 1P 2P 3P 4P 5P 6P 7P
MAX/MIN -- -- 61° -- -- -- -- -- -- -- -- -- -- 85°
TEMP 65° 65° 68° 72° 76° 77° 81° 83° 85° 85° 85° 85° 85° 83°
SKY COVER 22% 31% 40% 47% 54% 61% 57% 53% 49% 47% 45% 44% 39% 35%
Clouds
DEW PT 61° 61° 63° 63° 63° 65° 65° 65° 65° 63° 63° 63° 63° 63°
RH 87% 84% 81% 73% 66% 63% 58% 54% 51% 47% 48% 46% 48% 52%
POP 12HR -- -- 3% -- -- -- -- -- -- -- -- -- -- --
RAIN/SNOW (liq.equ) -- -- 0.00in -- -- -- -- -- 0.00in -- -- -- -- --
SNOWFALL -- -- 0in -- -- -- -- -- 0in -- -- -- -- --
WIND SPEED(MPH) 5 5 6 7 8 9 10 13 13 13 13 10 9 8
WIND Gust(MPH) 7 7 9 10 15 16 17 21 21 21 21 17 16 15
WIND DIR S S S SW SW SW SW SW SW SW SW SW SW SW
DEW Lgt Dew Lgt Dew Lgt Dew -- -- -- -- -- -- -- -- -- -- --
HeatIndex 65 65 68 72 76 77 82 84 86 87 87 86 85 84
Rain Showers -- -- -- -- -- -- -- -- -- -- -- -- -- --
Thunder Storm -- -- -- -- -- -- -- -- -- -- -- -- -- --
WIND CHILL -- -- -- -- -- -- -- -- -- -- -- -- -- --
SPRAY COND
DRY COND
LIVESTOCK HEATSTRESS 64.56 64.45 67.04 70.04 72.78 73.30 75.87 76.88 77.94 77.36 77.51 77.22 77.51 76.61



DAY FRIDAY SATURDAY SUNDAY MONDAY TUESDAY WEDNESDAY
EDT 6HR 8P 9P 10P 11P MIDN 1A 2A 3A 4A 5A 6A 7A 8A 9A 10A 11A NOON 1P 2P 3P 4P 5P 8P 11P 2A 5A 8A 11A 2P 5P 8P 2A 8A 2P 8P 2A 8A 2P 8P 2A 8A 2P 8P 2A 8A 2P 8P
MAX/MIN -- -- -- -- -- -- -- -- -- -- -- -- 65° -- -- -- -- -- -- -- -- 85° -- -- -- -- 65° -- -- 86° -- -- 65° 88° -- -- 65° 85° -- -- 65° 86° -- -- 67° 85° --
TEMP 79° 76° 74° 72° 70° 70° 70° 68° 67° 65° 65° 67° 68° 72° 76° 79° 81° 83° 85° 85° 85° 85° 81° 72° 67° 65° 68° 81° 86° 85° 79° 67° 68° 86° 79° 65° 68° 83° 79° 67° 67° 85° 81° 70° 70° 85° 77°
SKY COVER 30% 31% 32% 32% 38% 45% 51% 50% 49% 47% 47% 46% 46% 46% 47% 47% 49% 50% 52% 52% 52% 52% 11% 4% 16% 29% 33% 32% 33% 32% 22% 18% 17% 31% 48% 58% 54% 50% 61% 52% 43% 37% 27% 23% 31% 48% 48%
Clouds
DEW PT 63° 63° 63° 63° 63° 63° 63° 63° 63° 63° 63° 63° 65° 65° 67° 67° 67° 65° 65° 65° 65° 65° 65° 65° 65° 63° 65° 67° 63° 65° 63° 63° 63° 61° 63° 63° 65° 63° 65° 63° 63° 63° 63° 63° 63° 61° 61°
RH 58% 64% 71% 76% 78% 81% 80% 84% 87% 90% 90% 89% 86% 81% 73% 66% 60% 55% 53% 51% 51% 51% 58% 81% 92% 96% 90% 64% 46% 49% 57% 83% 84% 43% 56% 93% 87% 51% 62% 86% 86% 46% 56% 78% 78% 46% 57%
POP 12HR 12% -- -- -- -- -- -- -- -- -- -- -- 10% -- -- -- -- -- -- -- -- -- 19% -- -- -- 10% -- -- -- 16% -- 9% -- 16% -- 22% -- 26% -- 18% -- 14% -- 11% -- 19%
RAIN/SNOW (liq.equ) 0.00in -- -- -- -- -- 0.00in -- -- -- -- -- 0.00in -- -- -- -- -- 0.00in -- -- -- 0.00in -- 0.00in -- 0.00in -- 0.00in -- 0.00in -- -- -- -- -- -- -- -- -- -- -- -- -- -- -- --
SNOWFALL 0in -- -- -- -- -- 0in -- -- -- -- -- 0in -- -- -- -- -- 0in -- -- -- 0in -- 0in -- 0in -- 0in -- 0in -- -- -- -- -- -- -- -- -- -- -- -- -- -- -- --
WIND SPEED(MPH) 7 5 2 1 1 1 1 1 1 1 1 1 2 5 6 7 7 7 7 7 7 7 2 1 1 1 2 7 8 7 6 2 5 8 7 1 2 7 5 2 5 8 7 6 6 10 7
WIND DIR SW SW SW SW SW SW SW SW SW SW SW SW SW SW W W W W W W W W W S S S S SW W W W SW SW W W SW SW W W S S SW SW SW S SW SW
HeatIndex 81 76 74 72 70 70 70 68 67 65 65 67 68 72 76 79 84 86 87 88 88 88 84 72 67 65 68 83 88 87 81 67 68 87 81 65 68 85 79 67 67 86 82 70 70 85 77
Rain Showers -- -- -- -- -- -- -- -- -- -- -- -- -- -- Slight Chance Slight Chance Slight Chance Slight Chance Slight Chance -- -- -- -- -- -- -- -- Slight Chance -- -- -- -- -- -- Slight Chance Slight Chance Slight Chance Slight Chance Slight Chance -- -- -- -- -- -- Slight Chance Slight Chance
Thunder Storm -- -- -- -- -- -- -- -- -- -- -- -- -- -- Slight Chance Slight Chance Slight Chance Slight Chance Slight Chance -- -- -- -- -- -- -- -- Slight Chance -- -- -- -- -- -- Slight Chance Slight Chance Slight Chance Slight Chance Slight Chance -- -- -- -- -- -- Slight Chance Slight Chance
WIND CHILL -- -- -- -- -- -- -- -- -- -- -- -- -- -- -- -- -- -- -- -- -- -- -- -- -- -- -- -- -- -- -- -- -- -- -- -- -- -- -- -- -- -- -- -- -- -- --
SPRAY COND
DRY COND
LIVESTOCK HEATSTRESS 74.33 72.59 71.58 70.26 68.64 68.83 68.77 67.19 66.41 64.66 64.66 66.50 67.29 70.62 73.45 75.22 76.12 77.01 78.23 77.94 77.94 77.94 75.87 70.62 66.64 64.86 67.49 76.60 77.92 77.65 74.22 66.23 67.19 77.47 74.11 64.76 67.34 76.48 74.78 66.37 66.37 77.22 75.63 68.64 68.64 77.22 72.70

Click on individual weather variable above in left-hand column (ie., TEMP, RH, QPF 12HR) to view state forecast maps






NWS 48 Hr. Forecast Maps,

Regional Hourly Observations For JACKSON County, Kentucky
Issued at 500 AM EDT THU MAY 23 2019
SOUTHEAST KENTUCKY
  
CITY           SKY/WX    TMP DP  RH WIND       PRES   REMARKS
JACKSON        FAIR      69  60  73 CALM      30.16R                  
LONDON         FAIR      63  60  90 CALM      30.16R                  
SOMERSET       FAIR      66  59  77 S3        30.16R                  
MIDDLESBORO    FAIR      61  61 100 CALM      30.19R                  
MONTICELLO     FAIR      62  60  93 CALM      30.17R                  


Current NOWCAST not available:
Nowcasts are not issued routinely during fair weather. Only when
precipitation or other significant weather is occuring in this county will these
forecasts be issued. Currently, there is no short term forecast in effect.


Fire Weather Forecast For JACKSON County, KY
Provided by the National Weather Service:

Issued at: Thu May 23 05:35:12 EDT 2019

535 AM EDT Thu May 23 2019

                      Today        Tonight      Fri          

Cloud Cover           PCldy        PCldy        PCldy        
Chance precip (%)     0            0            20           
Precip type           None         None         tstms        
Temp (24H TREND)      88 (+1)      63 (-2)      88           
Rh % (24H TREND)      40 (0)       100 (+8)     41           
20ftwnd-AM(mph)       SW 5-9 G19                W 2-6        
20ftwnd-PM(mph)       SW 7-11 G21  Lgt/Var      W 3-7        
Precip duration                                 1            
Precip begin                                                 
Precip end                                                   
Precip amount         0.00         0.00         0.00         
LAL                   1            1            2            
Haines Index (MID)    3                         3            
Mixing hgt(ft-AGL)    6700                      6700         
Transport wnd (mph)   SW 21                     W 12         
Vent rate (kt-ft)     119167                    66466        
ADI Early             72 Good      4 Very Poor  76 Good      
ADI Late              82 Good      4 Very Poor  0 Very Poor  
Max LVORI Early       5            5            5            
Max LVORI Late        2            7            2            

Remarks...None.


SPC's Fire Weather Web Tool (Excellent!), SPC's Fire Weather Outlooks, NWS Fire Weather WEB, Fire Danger Class Map,
Keetch-Byram Drought Index, ROMAN Web, Haines Index ,
WFAS's 10-hr Dead Fuel Moist., WFAS's 100-hr Dead Fuel Moist., Probablity of Ignition, Visual blackness Map, Palmer Drought Index, HPC's Rainfall Forecast Maps


Hazardous Weather Outlook For JACKSON County, Kentucky
321 PM EDT Wed May 22 2019

 DAY ONE  Tonight.

No hazardous weather is expected at this time.

 DAYS TWO THROUGH SEVEN  Thursday through Tuesday.

Thunderstorms will be possible, mainly during the afternoon and
evening hours, Thursday through Tuesday. A thunderstorm or two 
could produce strong gusty winds on Thursday, mainly north of the 
Mountain Parkway.

 SPOTTER INFORMATION STATEMENT  

Spotter activation is not anticipated.

Latest JACKSON County, Kentucky Watches, Warnings and Advisories.
Additional Drought Info.: UKAWC Drought Page, Kentucky Drought Watch


7-Day Forecast For JACKSON County, KY

TODAY
Warm. Mostly sunny. A 20 percent chance of showers and thunderstorms late. Highs in the upper 80s. Southwest winds around 10 mph.

TONIGHT
Partly cloudy in the evening then becoming mostly cloudy. Patchy valley fog near dawn. Lows in the mid 60s. Light winds.

FRIDAY
Warm. Partly sunny. A 20 percent chance of showers and thunderstorms. Highs in the upper 80s. Light winds.

FRIDAY NIGHT
Mostly clear. Lows in the mid 60s. Light winds.

SATURDAY
Mostly sunny. A 20 percent chance of showers and thunderstorms in the morning. Highs in the upper 80s. Southwest winds around 10 mph.

SATURDAY NIGHT
Mostly clear. Lows in the mid 60s.

SUNDAY
Mostly sunny with a 20 percent chance of showers and thunderstorms. Highs in the upper 80s.

SUNDAY NIGHT
Mostly cloudy. Lows in the mid 60s.

MEMORIAL DAY
Mostly sunny with a 20 percent chance of showers and thunderstorms. Highs in the upper 80s.

MONDAY NIGHT
Partly cloudy. Lows in the upper 60s.

TUESDAY
Mostly sunny. Highs in the upper 80s.

TUESDAY NIGHT
Mostly clear. Lows in the upper 60s.

WEDNESDAY
Mostly sunny. Highs in the upper 80s.

Ag Weather Center, Department of Biosystems & Agricultural Engineering, University of Kentucky